Point Lay, AK

2:51 PM AKDT on September 25, 2016 (GMT -0800)
Point Lay | | Change Station

Elev 23 ft 69.73 °N, 163.01 °W | Updated 9 minutes ago

Light Rain
Light Rain
34 °F
Feels Like 24 °F
N
15
Wind Variable Wind from SSW

Today
High -- | Low -- °F
--% Chance of Precip.
Yesterday
High -- | Low -- °F
Precip. -- in
Pressure 29.75 in
Visibility 9.0 miles
Clouds Few 1100 ft
Scattered Clouds 1600 ft
Overcast 2400 ft
Windchill 24 °F
Dew Point 30 °F
Humidity 87%
Rainfall 0.03 in
Snow Depth Not available.
8:46 AM 8:37 PM
Waning Crescent, 24% visible
SPECI PPIZ 252242Z AUTO 21013KT 9SM -RA FEW011 SCT016 OVC024 01/M01 A2975 RMK AO2 RAB41SNE41 P0000 FZRANO TSNO
Pressure 29.75 in
Visibility 9.0 miles
Clouds Few 1100 ft
Scattered Clouds 1600 ft
Overcast 2400 ft
Windchill 24 °F
Dew Point 30 °F
Humidity 87%
Rainfall 0.03 in
Snow Depth Not available.
8:46 AM 8:37 PM
Waning Crescent, 24% visible
SPECI PPIZ 252242Z AUTO 21013KT 9SM -RA FEW011 SCT016 OVC024 01/M01 A2975 RMK AO2 RAB41SNE41 P0000 FZRANO TSNO

10-Day Weather Forecast

Almanac

Astronomy

Sep. 25, 2016 Rise Set
Actual Time
Civil Twilight
Nautical Twilight
Astronomical Twilight
Moon
Length of Visible Light
Length of Day
Tomorrow will be .
, % of the Moon is Illuminated

Today's Extremes

State Highs State Lows

Community

WunderPhotos

Upload Photos

1,941,761 photos uploaded!

WunderBlog® & News

Nearby

Air Quality

  Air Quality AQ Index Pollutant
Not available.

Snow Depth

Station Depth Elevation

Earthquake Activity

City Distance Mag. Time & Date
Minimum magnitude displayed is 2.5.

Coastal Water Temperatures

Place Temperature

Stations

Nearby Weather Stations

Station Location Temp. Windchill Dew Point Humidity Wind Precip. Elev Updated Type
                   

Watches & Warnings

There are currently no watches in effect.